Voltar ao catálogo

ARIANE 44L DEB

LostHEO
NORAD 24722·DEBRIS·🇫🇷 France

Lançado Jan 15, 1991 de Guiana Space Centre

Loading…

Próximas Passagens (próximas 24 horas)

TLE

ObsoletoSource: Space-Track

Época: Apr 16, 2025, 23:53 UTC

1 24722U 91003E   25106.99560617  .00001440  00000-0  62769-2 0  9998
2 24722   7.1662 311.0575 6540061 281.5406  16.2222  3.09336397125366

Acompanhe ARIANE 44L DEB em tempo real com AllMySat

Download on the App Store